Weather History for Claremore, OK

Change the Weather History Date:

Saturday, July 6, 2013

  Actual Average (KTUL) Record (KTUL)
Temperature  
Mean Temperature 77 °F 82 °F  
Max Temperature 86 °F 92 °F 111 °F (1996)
Min Temperature 68 °F 72 °F 55 °F (1972)
Cooling Degree Days 12 17  
Month to date cooling degree days 101  
Year to date cooling degree days 714  
Since 1 June cooling degree days 480  
Growing Degree Days 27 (Base 50)    
Moisture  
Dew Point 62 °F    
Average Humidity 62    
Maximum Humidity 78    
Minimum Humidity 43    
Precipitation  
Precipitation 0.00 in 0.12 in 1.62 in (1932)
Month to date precipitation 0.74  
Year to date precipitation 21.96  
Sea Level Pressure  
Sea Level Pressure 29.99 in    
Wind  
Wind Speed 7 mph (SSE)    
Max Wind Speed 13 mph    
Max Gust Speed 16 mph    
Visibility 10 miles    
Events Rain    
T = Trace of Precipitation, MM = Missing Value Source: NWS Daily Summary

Daily Weather History Graph

Daily Weather History Graph

Search for Another Location

Airport:

Trip Planner

Search our weather history database for the weather conditions in past years. The results will help you decide how hot, cold, wet, or windy it might be!

Date:

Astronomy

Jul. 06, 2013 Rise Set
Actual Time 6:10 AM CDT 8:42 PM CDT
Civil Twilight 5:40 AM CDT 9:12 PM CDT
Nautical Twilight 5:03 AM CDT 9:49 PM CDT
Astronomical Twilight 4:21 AM CDT 10:31 PM CDT
Moon 4:55 AM CDT (7/6) 7:26 PM CDT (7/6)
Length of Visible Light 15h 32m
Length of Day
14h 32m
Waning Crescent, 2% of the Moon is Illuminated
Jul 6
Waning Crescent
Jul 8
New
Jul 15
First Quarter
Jul 22
Full
Jul 29
Last Quarter

Hourly Weather History & Observations

Time (CDT) Temp. Heat Index Dew Point Humidity Pressure Visibility Wind Dir Wind Speed Gust Speed Precip Events Conditions
12:15 AM 71.6 °F - 62.6 °F 73% 29.98 in 10.0 mi SE 5.8 mph - N/A   Clear
12:35 AM 71.6 °F - 62.6 °F 73% 29.98 in 10.0 mi SE 5.8 mph - N/A   Clear
12:55 AM 71.6 °F - 60.8 °F 69% 29.98 in 10.0 mi SE 8.1 mph - N/A   Clear
1:15 AM 71.6 °F - 60.8 °F 69% 29.98 in 10.0 mi SE 6.9 mph - N/A   Clear
1:35 AM 71.6 °F - 60.8 °F 69% 29.98 in 10.0 mi SSE 5.8 mph - N/A   Clear
1:55 AM 69.8 °F - 60.8 °F 73% 29.97 in 10.0 mi SE 8.1 mph - N/A   Clear
2:15 AM 71.6 °F - 60.8 °F 69% 29.97 in 10.0 mi SE 8.1 mph - N/A   Clear
2:35 AM 69.8 °F - 60.8 °F 73% 29.97 in 10.0 mi SE 5.8 mph - N/A   Clear
2:55 AM 69.8 °F - 60.8 °F 73% 29.97 in 10.0 mi SE 6.9 mph - N/A   Clear
3:15 AM 69.8 °F - 60.8 °F 73% 29.97 in 10.0 mi SE 6.9 mph - N/A   Clear
3:35 AM 69.8 °F - 60.8 °F 73% 29.97 in 10.0 mi SE 5.8 mph - N/A   Clear
3:55 AM 69.8 °F - 60.8 °F 73% 29.97 in 10.0 mi SSE 6.9 mph - N/A   Clear
4:15 AM 68.0 °F - 60.8 °F 78% 29.97 in 10.0 mi SSE 5.8 mph - N/A   Clear
4:35 AM 68.0 °F - 60.8 °F 78% 29.97 in 10.0 mi SSE 4.6 mph - N/A   Clear
4:55 AM 68.0 °F - 60.8 °F 78% 29.98 in 10.0 mi Calm Calm - N/A   Clear
5:15 AM 69.8 °F - 60.8 °F 73% 29.97 in 10.0 mi South 4.6 mph - N/A   Clear
5:35 AM 69.8 °F - 60.8 °F 73% 29.97 in 10.0 mi SE 6.9 mph - N/A   Clear
5:55 AM 69.8 °F - 60.8 °F 73% 29.98 in 10.0 mi SE 5.8 mph - N/A   Clear
6:15 AM 69.8 °F - 60.8 °F 73% 29.98 in 10.0 mi SE 6.9 mph - N/A   Clear
6:35 AM 68.0 °F - 60.8 °F 78% 29.99 in 10.0 mi SE 3.5 mph - N/A   Clear
6:55 AM 68.0 °F - 60.8 °F 78% 29.99 in 10.0 mi SE 4.6 mph - N/A   Clear
7:15 AM 68.0 °F - 60.8 °F 78% 30.00 in 10.0 mi SE 4.6 mph - N/A   Clear
7:35 AM 69.8 °F - 60.8 °F 73% 30.00 in 10.0 mi SSE 5.8 mph - N/A   Clear
7:55 AM 69.8 °F - 62.6 °F 78% 30.00 in 10.0 mi South 3.5 mph - N/A   Clear
8:15 AM 71.6 °F - 62.6 °F 73% 30.01 in 10.0 mi SSE 4.6 mph - N/A   Clear
8:35 AM 73.4 °F - 62.6 °F 69% 30.03 in 10.0 mi East 9.2 mph - N/A   Clear
8:55 AM 77.0 °F - 60.8 °F 57% 30.03 in 10.0 mi ESE 8.1 mph - N/A   Clear
9:15 AM 77.0 °F - 60.8 °F 57% 30.03 in 10.0 mi SE 9.2 mph - N/A   Clear
9:35 AM 77.0 °F - 60.8 °F 57% 30.03 in 10.0 mi SSE 8.1 mph - N/A   Clear
9:55 AM 77.0 °F - 60.8 °F 57% 30.03 in 10.0 mi SSE 8.1 mph - N/A   Clear
10:15 AM 78.8 °F - 60.8 °F 54% 30.03 in 10.0 mi SSE 8.1 mph - N/A   Clear
10:35 AM 78.8 °F - 60.8 °F 54% 30.03 in 10.0 mi SSE 9.2 mph - N/A   Clear
10:55 AM 80.6 °F 81.5 °F 60.8 °F 51% 30.03 in 10.0 mi SE 11.5 mph - N/A   Clear
11:15 AM 82.4 °F 82.9 °F 60.8 °F 48% 30.03 in 10.0 mi South 9.2 mph - N/A   Clear
11:35 AM 86.0 °F 86.1 °F 60.8 °F 43% 30.02 in 10.0 mi SSE 11.5 mph - N/A   Clear
11:55 AM 86.0 °F 86.1 °F 60.8 °F 43% 30.01 in 10.0 mi South 10.4 mph - N/A   Clear
12:15 PM 84.2 °F 84.4 °F 60.8 °F 45% 30.00 in 10.0 mi South 10.4 mph - N/A   Clear
12:35 PM 86.0 °F 86.1 °F 60.8 °F 43% 30.00 in 10.0 mi South 11.5 mph - N/A   Clear
12:55 PM 86.0 °F 86.1 °F 60.8 °F 43% 30.00 in 10.0 mi South 9.2 mph 16.1 mph N/A   Clear
1:15 PM 84.2 °F 84.4 °F 60.8 °F 45% 29.99 in 10.0 mi SSE 9.2 mph - N/A   Clear
1:35 PM 84.2 °F 85.0 °F 62.6 °F 48% 29.99 in 10.0 mi SSE 9.2 mph - N/A   Clear
1:55 PM 84.2 °F 85.0 °F 62.6 °F 48% 29.99 in 10.0 mi SE 11.5 mph - N/A   Clear
2:15 PM 84.2 °F 85.0 °F 62.6 °F 48% 29.98 in 10.0 mi SSE 12.7 mph - N/A   Clear
2:35 PM 84.2 °F 85.0 °F 62.6 °F 48% 29.98 in 10.0 mi SSE 9.2 mph - N/A   Clear
2:55 PM 84.2 °F 85.0 °F 62.6 °F 48% 29.97 in 10.0 mi SSE 11.5 mph - N/A   Clear
3:15 PM 82.4 °F 83.4 °F 62.6 °F 51% 29.98 in 10.0 mi SSE 10.4 mph - N/A   Clear
3:35 PM 82.4 °F 83.9 °F 64.4 °F 54% 29.98 in 10.0 mi South 10.4 mph - N/A Rain Light Rain
3:55 PM 82.4 °F 83.9 °F 64.4 °F 54% 29.97 in 10.0 mi South 11.5 mph - N/A   Light Drizzle
4:15 PM 82.4 °F 83.9 °F 64.4 °F 54% 29.97 in 10.0 mi South 8.1 mph - N/A   Clear
4:35 PM 82.4 °F 83.9 °F 64.4 °F 54% 29.97 in 10.0 mi South 9.2 mph - N/A   Clear
4:55 PM 82.4 °F 83.9 °F 64.4 °F 54% 29.97 in 10.0 mi South 6.9 mph - N/A   Clear
5:15 PM 82.4 °F 83.4 °F 62.6 °F 51% 29.97 in 10.0 mi South 4.6 mph - N/A   Clear
5:35 PM 86.0 °F 86.6 °F 62.6 °F 45% 29.97 in 10.0 mi SSE 6.9 mph - N/A   Clear
5:55 PM 84.2 °F 85.0 °F 62.6 °F 48% 29.96 in 10.0 mi South 8.1 mph - N/A   Clear
6:15 PM 82.4 °F 83.4 °F 62.6 °F 51% 29.96 in 10.0 mi SSE 5.8 mph - N/A   Clear
6:35 PM 82.4 °F 83.4 °F 62.6 °F 51% 29.96 in 10.0 mi South 4.6 mph - N/A   Clear
6:55 PM 82.4 °F 83.4 °F 62.6 °F 51% 29.96 in 10.0 mi South 5.8 mph - N/A   Clear
7:15 PM 82.4 °F 83.4 °F 62.6 °F 51% 29.96 in 10.0 mi South 4.6 mph - N/A   Clear
7:35 PM 80.6 °F 82.3 °F 64.4 °F 58% 29.96 in 10.0 mi South 4.6 mph - N/A   Clear
7:55 PM 78.8 °F - 64.4 °F 61% 29.96 in 10.0 mi SE 5.8 mph - N/A Rain Light Rain
8:15 PM 78.8 °F - 66.2 °F 65% 29.96 in 10.0 mi ESE 5.8 mph - N/A   Scattered Clouds
8:35 PM 78.8 °F - 66.2 °F 65% 29.96 in 10.0 mi SE 5.8 mph - N/A   Clear
8:55 PM 77.0 °F - 64.4 °F 65% 29.96 in 10.0 mi SE 4.6 mph - N/A   Clear
9:15 PM 77.0 °F - 64.4 °F 65% 29.97 in 10.0 mi SE 3.5 mph - N/A   Clear
9:35 PM 73.4 °F - 64.4 °F 73% 29.98 in 10.0 mi SE 3.5 mph - N/A   Clear
9:55 PM 73.4 °F - 64.4 °F 73% 29.98 in 10.0 mi SSE 5.8 mph - N/A   Clear
10:15 PM 73.4 °F - 64.4 °F 73% 29.99 in 10.0 mi East 4.6 mph - N/A   Clear
10:35 PM 73.4 °F - 64.4 °F 73% 29.99 in 10.0 mi ESE 5.8 mph - N/A   Clear
10:55 PM 73.4 °F - 64.4 °F 73% 29.99 in 10.0 mi SE 6.9 mph - N/A   Clear
11:15 PM 73.4 °F - 64.4 °F 73% 30.00 in 10.0 mi ESE 5.8 mph - N/A   Clear
11:35 PM 73.4 °F - 64.4 °F 73% 30.00 in 10.0 mi SE 4.6 mph - N/A   Clear
11:55 PM 73.4 °F - 64.4 °F 73% 30.01 in 10.0 mi SE 6.9 mph - N/A   Clear